EW6329 Weather Reports


time (UTC)temp
C
wind
direction
speed
KPH
gust
KPH
rain 1hr
cm
rain 24hr
cm
rain mn
cm
humidity
%
barometer
mb
20260505124537 16 20 0.0 0.0 0.00 0.00 0.00 77 1008.4
20260505123048 16 20 0.0 0.0 0.00 0.00 0.00 76 1008.3
20260505121601 16 20 0.0 3.2 0.00 0.00 0.00 75 1008.1
20260505120011 16 20 0.0 3.2 0.00 0.00 0.00 75 1007.9
20260505114533 16 20 0.0 3.2 0.00 0.00 0.00 74 1007.8
20260505113039 16 20 0.0 0.0 0.00 0.00 0.00 73 1007.6
20260505111556 16 20 0.0 0.0 0.00 0.00 0.00 72 1007.2
20260505101542 17 126 0.0 3.2 0.00 0.00 0.00 69 1006.8
20260505100056 17 350 0.0 3.2 0.00 0.00 0.00 68 1006.7
20260505094506 17 355 0.0 0.0 0.00 0.00 0.00 67 1006.5
20260505093019 17 343 0.0 3.2 0.00 0.00 0.00 67 1006.5
20260505091549 17 43 0.0 3.2 0.00 0.00 0.00 67 1006.1
20260505090055 17 102 0.0 11.3 0.00 0.00 0.00 66 1006.2
20260505084559 17 93 0.0 6.4 0.00 0.00 0.00 66 1006.2
20260505083008 17 123 0.0 6.4 0.00 0.00 0.00 66 1006.3
20260505081529 17 321 0.0 3.2 0.00 0.00 0.00 66 1006.6
20260505080041 17 117 0.0 3.2 0.00 0.00 0.00 66 1006.7
20260505074606 17 125 0.0 3.2 0.00 0.00 0.00 66 1006.7
20260505073107 17 77 0.0 3.2 0.00 0.00 0.00 65 1006.9
20260505071519 17 77 0.0 3.2 0.00 0.00 0.00 64 1007.2
20260505070025 18 77 0.0 1.6 0.00 0.00 0.00 62 1007.8
20260505064535 18 69 0.0 0.0 0.00 0.00 0.00 61 1008.0
20260505063050 18 69 0.0 3.2 0.00 0.00 0.00 60 1008.2
20260505061624 18 69 0.0 3.2 0.00 0.00 0.00 60 1008.1
20260505060008 18 69 0.0 1.6 0.00 0.00 0.00 59 1008.3
20260505054523 19 89 0.0 0.0 0.00 0.00 0.00 59 1008.2
20260505053031 19 43 0.0 3.2 0.00 0.00 0.00 59 1008.2
20260505051545 19 118 0.0 3.2 0.00 0.00 0.00 58 1008.3
20260505041535 19 89 0.0 3.2 0.00 0.00 0.00 58 1008.5
20260505040050 19 127 0.0 3.2 0.00 0.00 0.00 58 1008.4
20260505034500 20 142 0.0 1.6 0.00 0.00 0.00 57 1008.4
20260505033027 20 142 0.0 3.2 0.00 0.00 0.00 56 1008.4
20260505031528 20 142 0.0 0.0 0.00 0.00 0.00 55 1008.3
20260505030040 20 142 0.0 3.2 0.00 0.00 0.00 54 1008.3
20260505024607 20 69 0.0 3.2 0.00 0.00 0.00 53 1008.1
20260505023004 20 69 0.0 3.2 0.00 0.00 0.00 52 1008.0
20260505021533 21 103 0.0 0.0 0.00 0.00 0.00 51 1007.9
20260505020030 21 103 0.0 0.0 0.00 0.00 0.00 50 1007.7
20260505014546 22 99 0.0 1.6 0.00 0.00 0.00 48 1007.6
20260505013057 22 99 0.0 1.6 0.00 0.00 0.00 47 1007.6
20260505011508 22 115 0.0 3.2 0.00 0.00 0.00 46 1007.7
20260505010020 23 115 0.0 3.2 0.00 0.00 0.00 45 1007.6
20260505004541 23 90 0.0 3.2 0.00 0.00 0.00 44 1007.3
20260505003046 23 96 0.0 4.8 0.00 0.00 0.00 43 1007.4
20260505001600 24 123 0.0 3.2 0.00 0.00 0.00 44 1007.3
20260505000011 24 86 0.0 6.4 0.00 0.00 0.00 43 1007.4
20260504234524 25 126 0.0 8.0 0.00 0.00 0.00 41 1007.3
20260504233050 25 315 1.6 9.7 0.00 0.00 0.00 40 1007.5
20260504231549 25 95 0.0 6.4 0.00 0.00 0.00 40 1007.4
20260504230111 26 360 0.0 6.4 0.00 0.00 0.00 40 1007.6
20260504224513 26 126 1.6 12.9 0.00 0.00 0.00 38 1007.7
20260504223034 25 225 0.0 4.8 0.00 0.00 0.00 38 1007.6
20260504221546 26 98 1.6 11.3 0.00 0.00 0.00 39 1007.7
20260504220118 26 298 1.6 9.7 0.00 0.00 0.00 39 1007.7
20260504214503 26 299 3.2 12.9 0.00 0.00 0.00 39 1007.7
20260504213018 26 265 1.6 4.8 0.00 0.00 0.00 39 1007.6
20260504211530 26 329 1.6 9.7 0.00 0.00 0.00 38 1007.8
20260504210043 26 327 0.0 9.7 0.00 0.00 0.00 38 1007.9
20260504204606 26 264 1.6 12.9 0.00 0.00 0.00 39 1008.1
20260504203005 26 307 1.6 8.0 0.00 0.00 0.00 38 1008.3
20260504201516 26 294 1.6 16.1 0.00 0.00 0.00 40 1008.6
20260504200031 26 123 0.0 6.4 0.00 0.00 0.00 42 1008.8
20260504194546 26 298 1.6 8.0 0.00 0.00 0.00 40 1009.0
20260504193059 26 276 0.0 6.4 0.00 0.00 0.00 41 1009.3
20260504191512 26 309 1.6 11.3 0.00 0.00 0.00 39 1009.7
20260504190020 26 293 1.6 9.7 0.00 0.00 0.00 39 1009.8
20260504184536 25 290 0.0 9.7 0.00 0.00 0.00 41 1010.0
20260504183047 25 300 1.6 14.5 0.00 0.00 0.00 41 1009.9
20260504181609 25 134 0.0 9.7 0.00 0.00 0.00 41 1010.1
20260504180010 25 263 1.6 11.3 0.00 0.00 0.00 44 1010.2
20260504174524 25 319 1.6 9.7 0.00 0.00 0.00 44 1010.5
20260504173035 25 317 3.2 14.5 0.00 0.00 0.00 44 1010.7
20260504171549 24 288 1.6 8.0 0.00 0.00 0.00 46 1010.8
20260504170104 23 271 1.6 9.7 0.00 0.00 0.00 46 1011.1